Regional Weather Roundup
Issued by NWS

Home | Current Version | Previous Version | Text Only | Print | Product List | Glossary Off
Versions: 1 2 3 4 5 6 7 8 9 10 11 12 13 14 15 16 17 18 19 20 21 22 23 24 25 26 27 28 29 30 31 32 33 34 35 36 37 38 39 40 41 42 43 44 45 46 47 48 49 50

558
ASUS45 KBOI 191810
RWRID

IDAHO REGIONAL WEATHER ROUNDUP
NATIONAL WEATHER SERVICE BOISE ID
1200 PM MDT THU APR 19 2018

NOTE: "FAIR" INDICATES FEW OR NO CLOUDS BELOW 12000 FEET
WITH NO SIGNIFICANT WEATHER AND/OR OBSTRUCTIONS TO VISIBILITY

IDZ012-014-191900-
SOUTHWEST IDAHO


CITY           SKY/WX    TMP DP  RH WIND       PRES   REMARKS
BOISE          PTSUNNY   57  32  38 NW13      29.94S
CALDWELL       PTSUNNY   58  32  37 NW16      29.96S
MOUNTAIN HOME  CLOUDY    56  31  39 NW10      29.92F
$$

IDZ016-017-191900-
SOUTHCENTRAL IDAHO


CITY           SKY/WX    TMP DP  RH WIND       PRES   REMARKS
BURLEY         CLOUDY    53  24  32 NE16G24   29.86F
JEROME         CLOUDY    55  28  35 NW12      29.91S
TWIN FALLS     CLOUDY    54  24  31 N12       29.90S
$$

IDZ019>023-191900-
SOUTHEAST IDAHO


CITY           SKY/WX    TMP DP  RH WIND       PRES   REMARKS
IDAHO FALLS    CLOUDY    54  24  31 N12       29.95F
POCATELLO      CLOUDY    54  26  34 NE13      29.91F
REXBURG        CLOUDY    55  19  24 NE10      29.94F
$$

IDZ006-010-011-018-031-032-191900-
CENTRAL IDAHO MOUNTAINS


CITY           SKY/WX    TMP DP  RH WIND       PRES   REMARKS
MCCALL         SUNNY     53  22  29 NW9       29.97F
HAILEY         CLOUDY    54  25  32 NW7       29.95S
STANLEY          N/A     43  20  39 CALM      30.00F
SALMON         SUNNY     52  23  32 N7        30.03F
CHALLIS        SUNNY     53  16  23 NW5       30.01F
$$

IDZ002-004-006-007-026-191900-
NORTHERN IDAHO


CITY           SKY/WX    TMP DP  RH WIND       PRES   REMARKS
LEWISTON       SUNNY     56  37  49 NW7       30.13S
LOWELL           N/A     57  34  41 CALM      30.08F
COEUR D`ALENE  SUNNY     52  33  48 N14       30.14S
MULLAN PASS    SUNNY     41  19  41 VRB3      30.10R
$$




USA.gov is the U.S. government's official web portal to all federal, state and local government web resources and services.